Terminal Aerodrome Forecast
Issued by NWS Topeka, KS

Home | Current Version | Previous Version | Graphics & Text | Print | Product List | Glossary On
Versions: 1 2 3 4 5 6 7 8 9 10 11 12
000
FTUS43 KTOP 271100
TAFTOP
TAF
KTOP 271120Z 2712/2812 35009KT P6SM FEW008 BKN150
     FM271500 35014G23KT P6SM BKN150
     FM280100 35004KT P6SM SKC=

USA.gov is the U.S. government's official web portal to all federal, state and local government web resources and services.